Regional Weather Roundup
Issued by NWS

Home | Current Version | Previous Version | Text Only | Print | Product List | Glossary Off
Versions: 1 2 3 4 5 6 7 8 9 10 11 12 13 14 15 16 17 18 19 20 21 22 23 24 25 26 27 28 29 30 31 32 33 34 35 36 37 38 39 40 41 42 43 44 45 46 47 48 49 50

000
ASUS43 KDMX 170906
RWRIA

WEATHER ROUNDUP FOR IOWA
NATIONAL WEATHER SERVICE DES MOINES IA
300 AM CST SUN DEC 17 2017

NOTE: "FAIR" INDICATES FEW OR NO CLOUDS BELOW 12,000 FEET WITH NO
SIGNIFICANT WEATHER AND/OR OBSTRUCTIONS TO VISIBILITY.

* - THESE STATIONS ARE NOT NWS STATIONS...THUS NOT UNDER NWS
QUALITY CONTROL.  THEY ALSO DO NOT REPORT WEATHER SUCH
AS PRECIPITATION OR FOG.

IAZ001>003-012>014-020>022-031>034-043>046-171000-
   NORTHWEST IOWA

CITY           SKY/WX    TMP DP  RH WIND       PRES   REMARKS
CARROLL *      CLOUDY    25  25 100 N7        30.00S WCI  17
CHEROKEE *     CLOUDY    26  26 100 NE9       30.03S FOG     WCI  17
LE MARS *      CLOUDY    25  23  93 N8        30.04R WCI  16
ORANGE CITY *  CLOUDY    25  25 100 NE8       30.03R FOG     WCI  16
SHELDON *      FOG       25  25 100 NE12      30.02S VSB 3/4 WCI  14
SIOUX CITY     CLOUDY    24  23  96 NW5       30.05R WCI  18
SPENCER        FOG       27  26  96 NE12      30.04R VSB 3/4 WCI  17
STORM LAKE *   FOG       27  27 100 NE16      30.00R VSB 1/4 WCI  14
$$

IAZ055>058-069>071-079>083-090>094-171000-
   SOUTHWEST IOWA

CITY           SKY/WX    TMP DP  RH WIND       PRES   REMARKS
ATLANTIC *     CLOUDY    30  27  86 N8        29.95F WCI  23
AUDUBON *      CLOUDY    27  25  93 CALM      29.97F
CLARINDA *       N/A     32  27  80 NE3       29.97
COUNCIL BLFS * CLOUDY    30  30 100 N10       29.94F WCI  21
CRESTON *      CLOUDY    32  27  80 NE10      29.96F WCI  24
HARLAN  *      PTCLDY    28  28 100 NE9       29.99F WCI  20
LAMONI         CLOUDY    39  25  57 SE7       29.97R WCI  34
RED OAK *      CLOUDY    32  28  86 NE5       29.94F WCI  27
SHENANDOAH *   CLOUDY    32  27  80 NE7       29.95F WCI  26
$$

IAZ047>049-059>061-072>074-084-171000-
   CENTRAL IOWA

CITY           SKY/WX    TMP DP  RH WIND       PRES   REMARKS
AMES           PTCLDY    29  25  85 NE6       29.99F WCI  23
ANKENY *       MOCLDY    28  23  80 NE5       29.99F WCI  23
BOONE *        MOCLDY    27  25  93 NE8       29.98S WCI  18
CHARITON *     CLOUDY    34  25  69 CALM      29.96S
DES MOINES     CLOUDY    31  24  75 NE5       29.98S WCI  26
GRINNELL*      CLOUDY    28  24  84 E8        30.01R WCI  20
KNOXVILLE *    CLOUDY    30  25  80 NE5       29.95F WCI  25
MARSHALLTOWN   CLOUDY    28  24  85 E10       30.00S WCI  19
NEWTON *       CLOUDY    30  25  80 NE9       29.99R WCI  22
PELLA *        CLOUDY    29  23  77 N7        29.98F WCI  22
PERRY *          N/A     26  23  87 N5        29.99S WCI  20
$$

IAZ004>006-015-016-023>025-035-036-171000-
   NORTH CENTRAL IOWA

CITY           SKY/WX    TMP DP  RH WIND       PRES   REMARKS
ALGONA *       CLOUDY    27  27 100 NE12      30.03S FOG     WCI  16
CLARION *      CLOUDY    25  25 100 NE7       30.02R WCI  17
ESTHERVILLE    CLOUDY    24  24 100 N13       30.05R FOG     WCI  12
FORT DODGE *   CLOUDY    23  21  92 N8        30.02R WCI  14
MASON CITY     CLOUDY    19  17  92 NE7       30.04S WCI  10
FOREST CITY *    N/A     23  21  93 NE6       30.03S WCI  16
WEBSTER CITY * CLOUDY    25  21  86 N7        29.99R WCI  17
IOWA FALLS *     N/A     27  24  89 NE6       30.03R WCI  20
$$

IAZ007>011-017>019-026>030-037>042-050>054-066-171000-
   NORTHEAST IOWA

CITY           SKY/WX    TMP DP  RH WIND       PRES   REMARKS
CEDAR RAPIDS   CLOUDY    30  26  85 E10       30.00F WCI  21
CHARLES CITY * CLOUDY    28  28 100 E14       30.03F FOG     WCI  17
CLINTON *      CLOUDY    29  28  96 E10       30.03F FOG     WCI  20
DECORAH *      CLOUDY    28  28 100 E6        30.05R FOG     WCI  22
DUBUQUE        CLOUDY    30  28  92 NE10      30.04S FOG     WCI  21
MONTICELLO *   CLOUDY    28  28 100 NE5       30.03F FOG     WCI  23
OELWEIN *      CLOUDY    28  28 100 E14       30.03F FOG     WCI  17
WATERLOO       CLOUDY    22  21  96 NE7       30.03S FOG     WCI  13
$$

IAZ064-065-067-068-078-171000-
   EAST CENTRAL IOWA

CITY           SKY/WX    TMP DP  RH WIND       PRES   REMARKS
DAVENPORT      CLOUDY    29  25  85 E9        30.04F WCI  20
IOWA CITY      CLOUDY    31  25  78 NE6       30.04R WCI  25
MT. PLEASANT * CLOUDY    32  24  72 CALM      29.98S
MUSCATINE *    CLOUDY    30  25  80 NE5       30.02F WCI  25
QUAD CITIES    CLOUDY    28  24  85 E7        30.02S WCI  21
$$

IAZ062-063-075>077-085>089-095>099-171000-
   SOUTHEAST IOWA

CITY           SKY/WX    TMP DP  RH WIND       PRES   REMARKS
BURLINGTON     CLOUDY    35  27  72 CALM      29.99F
FAIRFIELD *    CLOUDY    30  25  80 NE5       29.97S WCI  25
FORT MADISON * CLOUDY    43  27  52 SW5       30.01R
KEOKUK *       CLOUDY    41  27  56 S7        30.01R
OSKALOOSA *      N/A     30  24  79 NE8       29.98R WCI  23
OTTUMWA        CLOUDY    32  24  72 NE8       29.97S WCI  25
WASHINGTON *   CLOUDY    28  27  93 NE10      30.00F WCI  19
$$

ABBREVIATIONS USED IN REMARKS
   TC - TEMPERATURES IN CELSIUS
  WCI - WIND CHILL INDEX
   HX - HEAT INDEX
  VSB - VISIBILITY
$$





USA.gov is the U.S. government's official web portal to all federal, state and local government web resources and services.